Weather History for KPTB - February, 2014

Change the Weather History Date:

Tuesday, February 4, 2014

  Actual Average (KRIC) Record (KRIC)
Temperature  
Mean Temperature 39 °F 39 °F  
Max Temperature 46 °F 49 °F 72 °F (1991)
Min Temperature 32 °F 29 °F 8 °F (1970)
Degree Days  
Heating Degree Days 26 26  
Month to date heating degree days 104  
Since 1 July heating degree days 2365  
Cooling Degree Days 0 0  
Month to date cooling degree days 0  
Year to date cooling degree days 0  
Moisture  
Dew Point 34 °F    
Average Humidity 81    
Maximum Humidity 100    
Minimum Humidity 61    
Precipitation  
Precipitation 0.38 in 0.10 in 2.26 in (1998)
Month to date precipitation 0.40  
Year to date precipitation 3.44  
Snow  
Snow 0.00 in 0.20 in 4.60 in (1933)
Month to date snowfall 0.6  
Since 1 July snowfall 6.8  
Snow Depth -    
Sea Level Pressure  
Sea Level Pressure 30.33 in    
Wind  
Wind Speed 6 mph (NE)    
Max Wind Speed 13 mph    
Max Gust Speed 18 mph    
Visibility 8 miles    
Events      
T = Trace of Precipitation, MM = Missing Value Source: NWS Daily Summary

Daily Weather History Graph

Daily Weather History Graph

Search for Another Location

Airport or City:

Trip Planner

Search our weather history database for the weather conditions in past years. The results will help you decide how hot, cold, wet, or windy it might be!

Date:

Astronomy

Feb. 04, 2014 Rise Set
Actual Time 7:10 AM EST 5:38 PM EST
Civil Twilight 6:43 AM EST 6:05 PM EST
Nautical Twilight 6:12 AM EST 6:36 PM EST
Astronomical Twilight 5:41 AM EST 7:06 PM EST
Moon 9:55 AM EST (2/4) 11:21 PM EST (2/4)
Length of Visible Light 11h 22m
Length of Day
10h 27m
Waxing Crescent, 29% of the Moon is Illuminated
Feb 4
Waxing Crescent
Feb 6
First Quarter
Feb 14
Full
Feb 22
Last Quarter
Mar 1
New

Hourly Weather History & Observations

Time (EST) Temp. Windchill Dew Point Humidity Pressure Visibility Wind Dir Wind Speed Gust Speed Precip Events Conditions
12:15 AM 39.2 °F 34.2 °F 35.6 °F 87% 30.33 in 10.0 mi North 6.9 mph - N/A   Overcast
12:35 AM 39.2 °F 35.0 °F 35.6 °F 87% 30.33 in 10.0 mi NNE 5.8 mph - N/A   Overcast
12:55 AM 39.2 °F 33.6 °F 35.6 °F 87% 30.33 in 10.0 mi North 8.1 mph - N/A   Mostly Cloudy
1:15 AM 39.2 °F 33.6 °F 35.6 °F 87% 30.32 in 10.0 mi NNE 8.1 mph - N/A   Mostly Cloudy
1:35 AM 39.2 °F 33.0 °F 35.6 °F 87% 30.33 in 10.0 mi NNE 9.2 mph - N/A   Overcast
1:55 AM 39.2 °F 33.0 °F 35.6 °F 87% 30.33 in 10.0 mi NE 9.2 mph - N/A   Overcast
2:15 AM 39.2 °F 31.6 °F 35.6 °F 87% 30.34 in 10.0 mi NNE 12.7 mph 18.4 mph N/A   Overcast
2:35 AM 39.2 °F 32.5 °F 35.6 °F 87% 30.35 in 10.0 mi NNE 10.4 mph - N/A   Overcast
2:55 AM 37.4 °F 29.3 °F 33.8 °F 87% 30.34 in 10.0 mi NNE 12.7 mph - N/A   Overcast
3:15 AM 37.4 °F 31.4 °F 33.8 °F 87% 30.34 in 10.0 mi NE 8.1 mph - N/A   Scattered Clouds
3:35 AM 37.4 °F 31.4 °F 33.8 °F 87% 30.35 in 10.0 mi NE 8.1 mph - N/A   Scattered Clouds
3:55 AM 37.4 °F 33.8 °F 33.8 °F 87% 30.35 in 10.0 mi NNE 4.6 mph - N/A   Scattered Clouds
4:15 AM 37.4 °F 33.8 °F 33.8 °F 87% 30.34 in 10.0 mi North 4.6 mph - N/A   Clear
4:35 AM 35.6 °F 31.7 °F 33.8 °F 93% 30.35 in 10.0 mi NNE 4.6 mph - N/A   Clear
4:55 AM 35.6 °F 30.7 °F 33.8 °F 93% 30.35 in 10.0 mi NNE 5.8 mph - N/A   Clear
5:15 AM 35.6 °F 31.7 °F 33.8 °F 93% 30.36 in 10.0 mi NE 4.6 mph - N/A   Clear
5:35 AM 35.6 °F - 33.8 °F 93% 30.37 in 10.0 mi Calm Calm - N/A   Clear
5:55 AM 35.6 °F 32.8 °F 33.8 °F 93% 30.38 in 10.0 mi NNE 3.5 mph - N/A   Clear
6:15 AM 33.8 °F 29.6 °F 30.2 °F 87% 30.38 in 10.0 mi NNE 4.6 mph - N/A   Clear
6:35 AM 33.8 °F 30.8 °F 30.2 °F 87% 30.39 in 10.0 mi NE 3.5 mph - N/A   Clear
6:55 AM 33.8 °F - 30.2 °F 87% 30.40 in 10.0 mi Calm Calm - N/A   Clear
7:15 AM 32.0 °F - 30.2 °F 93% 30.41 in 7.0 mi Calm Calm - N/A   Clear
7:35 AM 33.8 °F - 30.2 °F 87% 30.43 in 7.0 mi Calm Calm - N/A   Clear
7:55 AM 33.8 °F 30.8 °F 33.8 °F 100% 30.43 in 7.0 mi North 3.5 mph - N/A   Clear
8:15 AM 35.6 °F 31.7 °F 32.0 °F 87% 30.43 in 10.0 mi North 4.6 mph - N/A   Clear
8:35 AM 37.4 °F 34.9 °F 30.2 °F 75% 30.44 in 10.0 mi NNE 3.5 mph - N/A   Clear
8:55 AM 37.4 °F 33.8 °F 30.2 °F 75% 30.44 in 10.0 mi NE 4.6 mph - N/A   Clear
9:15 AM 41.0 °F 37.1 °F 33.8 °F 76% 30.44 in 10.0 mi NE 5.8 mph - N/A   Mostly Cloudy
9:35 AM 41.0 °F 35.8 °F 32.0 °F 70% 30.45 in 10.0 mi NNE 8.1 mph - N/A   Overcast
9:55 AM 42.8 °F 38.6 °F 32.0 °F 66% 30.45 in 10.0 mi NE 6.9 mph - N/A   Mostly Cloudy
10:15 AM 42.8 °F 38.6 °F 32.0 °F 66% 30.44 in 10.0 mi NE 6.9 mph - N/A   Scattered Clouds
10:35 AM 42.8 °F 38.0 °F 30.2 °F 61% 30.44 in 10.0 mi NE 8.1 mph - N/A   Scattered Clouds
10:55 AM 42.8 °F 38.6 °F 32.0 °F 66% 30.45 in 10.0 mi NNE 6.9 mph - N/A   Overcast
11:15 AM 42.8 °F 37.5 °F 33.8 °F 70% 30.45 in 10.0 mi NE 9.2 mph - N/A   Overcast
11:35 AM 44.6 °F 42.2 °F 32.0 °F 61% 30.43 in 10.0 mi ENE 4.6 mph - N/A   Mostly Cloudy
11:55 AM 44.6 °F 40.2 °F 33.8 °F 66% 30.41 in 10.0 mi ENE 8.1 mph - N/A   Clear
12:15 PM 44.6 °F 40.7 °F 33.8 °F 66% 30.39 in 10.0 mi NE 6.9 mph - N/A   Scattered Clouds
12:35 PM 44.6 °F 41.4 °F 32.0 °F 61% 30.37 in 10.0 mi North 5.8 mph - N/A   Overcast
12:55 PM 44.6 °F 42.2 °F 33.8 °F 66% 30.36 in 10.0 mi NNE 4.6 mph - N/A   Overcast
1:15 PM 44.6 °F 42.2 °F 33.8 °F 66% 30.34 in 10.0 mi NE 4.6 mph - N/A   Overcast
1:35 PM 46.4 °F 42.9 °F 33.8 °F 62% 30.33 in 10.0 mi NE 6.9 mph - N/A   Overcast
1:55 PM 46.4 °F 42.9 °F 33.8 °F 62% 30.34 in 10.0 mi North 6.9 mph - N/A   Overcast
2:15 PM 46.4 °F 42.4 °F 33.8 °F 62% 30.32 in 10.0 mi NE 8.1 mph - N/A   Overcast
2:35 PM 46.4 °F 42.4 °F 33.8 °F 62% 30.32 in 10.0 mi NE 8.1 mph - N/A   Overcast
2:55 PM 46.4 °F 42.9 °F 33.8 °F 62% 30.31 in 10.0 mi NE 6.9 mph - N/A   Overcast
3:15 PM 46.4 °F 43.5 °F 33.8 °F 62% 30.31 in 10.0 mi NE 5.8 mph - N/A   Overcast
3:35 PM 46.4 °F 43.5 °F 33.8 °F 62% 30.30 in 10.0 mi NE 5.8 mph - N/A   Overcast
3:55 PM 46.4 °F 42.9 °F 33.8 °F 62% 30.30 in 10.0 mi NE 6.9 mph - N/A   Overcast
4:15 PM 44.6 °F 41.4 °F 33.8 °F 66% 30.30 in 10.0 mi NE 5.8 mph - N/A   Overcast
4:35 PM 44.6 °F 40.7 °F 33.8 °F 66% 30.30 in 10.0 mi NE 6.9 mph - N/A   Overcast
4:55 PM 44.6 °F 40.2 °F 35.6 °F 71% 30.28 in 10.0 mi ENE 8.1 mph - N/A   Overcast
5:15 PM 44.6 °F 40.2 °F 35.6 °F 71% 30.28 in 10.0 mi East 8.1 mph - N/A   Overcast
5:35 PM 42.8 °F 40.1 °F 37.4 °F 81% 30.28 in 7.0 mi East 4.6 mph - N/A   Overcast
5:55 PM 42.8 °F 40.1 °F 37.4 °F 81% 30.28 in 10.0 mi ENE 4.6 mph - 0.01 in   Overcast
6:35 PM 42.8 °F 39.3 °F 37.4 °F 81% 30.28 in 10.0 mi ENE 5.8 mph - N/A   Overcast
7:15 PM 41.0 °F 39.0 °F 37.4 °F 87% 30.29 in 4.0 mi North 3.5 mph - 0.04 in   Overcast
7:35 PM 41.0 °F 38.0 °F 37.4 °F 87% 30.28 in 4.0 mi NE 4.6 mph - 0.06 in   Overcast
7:55 PM 39.2 °F 35.0 °F 37.4 °F 93% 30.27 in 4.0 mi NE 5.8 mph - 0.10 in   Overcast
8:15 PM 39.2 °F 34.2 °F 37.4 °F 93% 30.27 in 4.0 mi NE 6.9 mph - 0.02 in   Overcast
8:35 PM 39.2 °F 35.9 °F 37.4 °F 93% 30.26 in 2.5 mi NE 4.6 mph - 0.06 in   Overcast
8:55 PM 39.2 °F 33.6 °F 37.4 °F 93% 30.25 in 3.0 mi NNE 8.1 mph - 0.08 in   Overcast
9:15 PM 39.2 °F 33.0 °F 37.4 °F 93% 30.23 in 3.0 mi NE 9.2 mph - 0.02 in   Overcast
9:35 PM 39.2 °F 34.2 °F 37.4 °F 93% 30.21 in 2.5 mi NNE 6.9 mph - 0.05 in   Overcast
9:55 PM 39.2 °F 33.6 °F 37.4 °F 93% 30.20 in 2.5 mi NNE 8.1 mph - 0.08 in   Overcast
10:15 PM 39.2 °F 35.0 °F 37.4 °F 93% 30.19 in 2.5 mi NNE 5.8 mph - 0.06 in   Overcast
10:35 PM 37.4 °F 32.8 °F 37.4 °F 100% 30.17 in 5.0 mi NNE 5.8 mph - 0.08 in   Overcast
10:55 PM 37.4 °F 32.8 °F 37.4 °F 100% 30.16 in 4.0 mi ENE 5.8 mph - 0.10 in   Overcast
11:15 PM 37.4 °F 33.8 °F 37.4 °F 100% 30.15 in 3.0 mi NE 4.6 mph - N/A   Overcast
11:35 PM 37.4 °F 33.8 °F 37.4 °F 100% 30.13 in 5.0 mi NE 4.6 mph - 0.01 in   Overcast
11:55 PM 37.4 °F 33.8 °F 37.4 °F 100% 30.12 in 4.0 mi NNE 4.6 mph - 0.01 in   Overcast